Location: Killam
(52.7910°N, 111.8608°W)
Time: 12:03:20
(UTC+00:00)

ISS - Pass Details

Date: 23 January 2026
Orbit: 413 x 428 km, 51.6° (Epoch: 18 February)

Event Time Altitude Azimuth Distance (km) Brightness Sun altitude
Rises 00:34:16 0° 259° (W) 2,357 2.0 -6.1°
Reaches altitude 10° 00:36:22 10° 257° (WSW) 1,497 0.7 -6.4°
Maximum altitude 00:39:42 71° 174° (S) 449 -3.6 -6.9°
Drops below altitude 10° 00:43:05 10° 90° (E) 1,509 -1.5 -7.3°
Enters shadow 00:43:25 - 90° (E) 1,648 -1.3 -7.4°
